Regional Weather Roundup
Issued by NWS Sioux Falls, SD

Home | Current Version | Previous Version | Text Only | Print | Product List | Glossary Off
Versions: 1 2 3 4 5 6 7 8 9 10 11 12 13 14 15 16 17 18 19 20 21 22 23 24 25 26 27 28 29 30 31 32 33 34 35 36 37 38 39 40 41 42 43 44 45 46 47 48 49 50

000
ASUS43 KFSD 230002
RWRFSD

WEATHER ROUNDUP FOR SE SOUTH DAKOTA/SW MINNESOTA/NW IOWA
NATIONAL WEATHER SERVICE SIOUX FALLS SD
600 PM CST SAT NOV 22 2014

NOTE: "FAIR" INDICATES FEW OR NO CLOUDS BELOW 12,000 FEET WITH NO
SIGNIFICANT WEATHER AND OR OBSTRUCTIONS TO VISIBILITY.


SDZ038>040-050-052>070-230100-
SOUTHEAST SOUTH DAKOTA

CITY           SKY/WX    TMP DP  RH WIND       PRES   REMARKS
CHAMBERLAIN    CLOUDY    45  32  60 N5        29.42R
6HR MIN TEMP:  42; 6HR MAX TEMP:  55;

HURON          MOCLDY    39  33  79 SE12      29.40F
6HR MIN TEMP:  37; 6HR MAX TEMP:  43;

MADISON        FAIR      37  37 100 S9        29.46R
MITCHELL       MOCLDY    44  35  70 S12       29.43R
6HR MIN TEMP:  42; 6HR MAX TEMP:  50;

SIOUX FALLS    CLOUDY    41  35  79 S15       29.48F
6HR MIN TEMP:  37; 6HR MAX TEMP:  44;

WINNER         FAIR      53  30  41 SW7       29.42S
YANKTON        MOCLDY    45  34  65 S15       29.49S
$$

MNZ071-072-080-081-089-090-097-098-230100-
SOUTHWEST MINNESOTA

CITY           SKY/WX    TMP DP  RH WIND       PRES   REMARKS
FAIRMONT       CLOUDY    37  34  87 S14       29.57F
JACKSON        MOCLDY    37  34  87 S15       29.56R
LUVERNE        PTCLDY    36  34  93 S5        29.51F FOG
MARSHALL       PTCLDY    37  34  87 S21G26    29.47F
6HR MIN TEMP:  36; 6HR MAX TEMP:  37;

MONTEVIDEO     PTCLDY    36  36 100 S12       29.49F FOG
PIPESTONE      PTCLDY    36  36 100 S10       29.48F FOG
REDWOOD FALLS  PTCLDY    35  33  92 SE10      29.54F FOG     WCI  27
TRACY          PTCLDY    38  36  91 S13G20    29.49S
WINDOM           N/A     37  36  93 S8        29.53F FOG
WORTHINGTON    PTCLDY    37  34  87 S16       29.53S
$$

IAZ001>003-012>014-020>022-031-032-NEZ013-014-SDZ071-230100-
NORTHWEST IOWA

CITY           SKY/WX    TMP DP  RH WIND       PRES   REMARKS
DENISON        PTCLDY    48  48 100 S17G23    29.58F
ESTHERVILLE    MOCLDY    37  36  96 S16       29.57S FOG
SIOUX CITY     PTCLDY    38  35  89 E9        29.56F
6HR MIN TEMP:  38; 6HR MAX TEMP:  47;

SPENCER        MOCLDY    39  36  89 S14       29.57S FOG
6HR MIN TEMP:  36; 6HR MAX TEMP:  41;

$$

ABBREVIATIONS USED IN REMARKS
   TC - TEMPERATURE IN CELSIUS
  WCI - WIND CHILL INDEX
   HX - HEAT INDEX
  VSB - VISIBILITY




USA.gov is the U.S. government's official web portal to all federal, state and local government web resources and services.